User: anonymous   Login
Location: Deep South Regional Star Gaze
(30.9929°N, 90.9586°W)
Time: 01:38:43
(UTC-06:00)
Language:

MSX - Orbit

View from above orbital plane
View from above orbital plane
View from above satellite
View from above satellite

Ground track
Ground track

The orbit data is extracted from the following two-line orbital elements,

1 23851U 96024A   17334.71950091 0.00000060  00000-0  42270-4 0    08
2 23851  98.6728 331.3535 0006004 229.0625 130.9374 13.98058124    08
Epoch (UTC): 30 November 2017 17:16:04
Eccentricity: 0.0006004
inclination: 98.6728°
perigee height: 896 km
apogee height: 905 km
right ascension of ascending node: 331.3535°
argument of perigee: 229.0625°
revolutions per day: 13.98058124
mean anomaly at epoch: 130.9374°
orbit number at epoch: 0

The dashed part of the orbit path shows where the satellite is in the earth's shadow,  

DLR